TimeMST,TemperatureF,Dew PointF,Humidity,Sea Level PressureIn,VisibilityMPH,Wind Direction,Wind SpeedMPH,Gust SpeedMPH,PrecipitationIn,Events,Conditions,WindDirDegrees,DateUTC
12:52 AM,19.9,15.1,81,30.40,10.0,North,10.4,-,N/A,,Overcast,350,2013-01-03 07:52:00
1:52 AM,21.0,14.0,74,30.42,10.0,NNW,6.9,-,N/A,,Overcast,330,2013-01-03 08:52:00
2:52 AM,19.0,14.0,81,30.42,10.0,NW,4.6,-,N/A,,Overcast,320,2013-01-03 09:52:00
3:19 AM,15.8,12.2,86,30.26,10.0,WSW,4.6,-,N/A,,Scattered Clouds,240,2013-01-03 10:19:00
3:52 AM,16.0,10.9,81,30.41,10.0,SSW,4.6,-,N/A,,Partly Cloudy,210,2013-01-03 10:52:00
4:52 AM,10.0,5.0,80,30.41,10.0,Calm,Calm,-,N/A,,Clear,0,2013-01-03 11:52:00
5:52 AM,7.0,3.0,84,30.43,10.0,Calm,Calm,-,N/A,,Clear,0,2013-01-03 12:52:00
6:52 AM,6.1,1.0,80,30.42,10.0,WNW,4.6,-,N/A,,Clear,300,2013-01-03 13:52:00
7:52 AM,5.0,1.0,84,30.41,10.0,Calm,Calm,-,N/A,,Clear,0,2013-01-03 14:52:00
8:52 AM,12.9,7.0,77,30.38,10.0,Calm,Calm,-,N/A,,Clear,0,2013-01-03 15:52:00
9:52 AM,18.0,9.0,68,30.37,10.0,South,4.6,-,N/A,,Clear,180,2013-01-03 16:52:00
10:52 AM,21.9,10.9,63,30.34,10.0,Calm,Calm,-,N/A,,Clear,0,2013-01-03 17:52:00
11:52 AM,27.0,15.1,61,30.30,10.0,South,3.5,-,N/A,,Clear,170,2013-01-03 18:52:00
12:52 PM,28.0,17.1,63,30.27,10.0,SE,4.6,-,N/A,,Clear,140,2013-01-03 19:52:00
1:52 PM,30.0,18.0,61,30.26,10.0,SE,4.6,-,N/A,,Clear,140,2013-01-03 20:52:00
2:52 PM,32.0,17.1,54,30.26,10.0,South,4.6,-,N/A,,Clear,170,2013-01-03 21:52:00
3:52 PM,28.9,17.1,61,30.27,10.0,South,3.5,-,N/A,,Clear,170,2013-01-03 22:52:00
4:52 PM,23.0,14.0,68,30.29,10.0,East,3.5,-,N/A,,Clear,100,2013-01-03 23:52:00
5:52 PM,21.9,12.9,68,30.30,10.0,Calm,Calm,-,N/A,,Clear,0,2013-01-04 00:52:00
6:52 PM,17.1,10.9,77,30.32,10.0,Calm,Calm,-,N/A,,Clear,0,2013-01-04 01:52:00
7:52 PM,16.0,10.9,81,30.32,10.0,Calm,Calm,-,N/A,,Clear,0,2013-01-04 02:52:00
8:52 PM,14.0,8.1,77,30.29,10.0,Calm,Calm,-,N/A,,Clear,0,2013-01-04 03:52:00
9:52 PM,14.0,9.0,80,30.27,10.0,Calm,Calm,-,N/A,,Clear,0,2013-01-04 04:52:00
10:52 PM,12.2,6.8,79,30.10,10.0,Calm,Calm,-,N/A,,Clear,0,2013-01-04 05:52:00
11:52 PM,15.1,7.0,70,30.23,10.0,Calm,Calm,-,N/A,,Clear,0,2013-01-04 06:52:00